Location: Walnut Point State Park
(39.6958°N, 88.0345°W)
Time: 19:16:09
(UTC-05:00)

Amateur Radio Satellites - All Passes

Search period start: 26 April 2015 18:46
Search period end: 27 April 2015 18:46
Location: Walnut Point State Park, 39.6958°N, 88.0345°W

Satellite Date Start Highest point End Downlink Frequencies (MHz)
Time Altitude Azimuth
Cosmos 2499 26 Apr 18:49:01 18:57:54 85° 98° (E) 19:06:36 435.465 / 435.565
DANDE 26 Apr 18:50:00 18:52:19 15° 298° (WNW) 18:54:51 436.750
GONETS M04 26 Apr 18:51:21 18:57:44 21° 298° (WNW) 19:03:44
SO-50 26 Apr 18:52:06 18:54:43 14° 38° (NE) 18:57:29 436.795
STRAND 1 26 Apr 19:04:32 19:08:41 25° 94° (E) 19:12:54 437.568
M-CUBED/EXP-1 PRIME 26 Apr 19:06:04 19:10:05 47° 103° (ESE) 19:13:46 437.505
VERMONT LUNAR 26 Apr 19:10:47 19:14:11 77° 4° (N) 19:17:34 437.305
BRITE-PL 26 Apr 19:17:14 19:19:46 16° 66° (ENE) 19:22:30 437.365/2234.400
HO-68 26 Apr 19:30:24 19:36:11 28° 62° (ENE) 19:42:09 435.675
CANX-2 26 Apr 19:31:36 19:33:15 12° 65° (ENE) 19:35:07 2200.000
DOVE 4 26 Apr 19:32:52 19:33:08 10° 62° (ENE) 19:33:41 437.250
ISS 26 Apr 19:33:43 19:36:03 18° 228° (SW) 19:38:18 145.825
CUTE-I 26 Apr 19:37:57 19:41:49 20° 268° (W) 19:45:30 437.470
CUTE 1.7 + AOD 2 26 Apr 19:40:04 19:42:11 14° 66° (ENE) 19:44:29 437.475
RS-15 26 Apr 19:41:06 19:48:22 19° 6° (N) 19:55:55 29.354- 29.394
AUBIESAT-1 26 Apr 19:47:24 19:51:29 60° 291° (WNW) 19:55:12 437.475
Cubesat XI-IV 26 Apr 19:48:43 19:51:57 15° 270° (W) 19:54:55 437.490
PHONESAT 2.4 26 Apr 19:49:43 19:53:18 76° 359° (N) 19:56:54 2401.200-2431.200
CINEMA 3 26 Apr 20:07:18 20:09:10 13° 64° (ENE) 20:11:17 145.822/145.860
CUBESAT XI-V 26 Apr 20:10:07 20:14:10 30° 290° (WNW) 20:18:10 437.345
PRISM 26 Apr 20:13:59 20:17:50 40° 288° (WNW) 20:21:39 437.425
COMPASS 1 26 Apr 20:27:21 20:31:01 30° 71° (ENE) 20:34:46 437.405
SO-50 26 Apr 20:31:07 20:36:06 83° 60° (ENE) 20:41:01 436.795
GOMX 1 26 Apr 20:35:12 20:39:22 76° 75° (ENE) 20:43:47 467.674
DELFI C3 26 Apr 20:39:22 20:40:45 12° 66° (ENE) 20:42:21 145.870
M-CUBED/EXP-1 PRIME 26 Apr 20:42:09 20:44:31 15° 301° (WNW) 20:46:39 437.505
STRAND 1 26 Apr 20:43:19 20:47:59 36° 290° (WNW) 20:52:36 437.568
YUBILEINY 26 Apr 20:44:05 20:50:33 23° 64° (ENE) 20:57:20 435.215
Cosmos 2499 26 Apr 20:45:50 20:52:16 21° 297° (WNW) 20:58:09 435.465 / 435.565
VERMONT LUNAR 26 Apr 20:48:19 20:51:36 48° 201° (SSW) 20:54:51 437.305
Oscar 11 26 Apr 20:50:12 20:53:34 23° 69° (ENE) 20:57:01 145.826/435.025
SEEDS 26 Apr 20:54:01 20:58:16 76° 77° (ENE) 21:02:34 437.485
BRITE-PL 26 Apr 20:54:07 20:58:02 39° 263° (W) 21:02:03 437.365/2234.400
ZACube-1 26 Apr 20:54:45 20:56:59 14° 65° (ENE) 20:59:25 437.345
CANX-2 26 Apr 21:04:28 21:08:43 61° 260° (W) 21:13:00 2200.000
DOVE 4 26 Apr 21:06:02 21:10:16 75° 259° (WSW) 21:14:45 437.250
AAUSAT CUBESAT 2 26 Apr 21:08:21 21:12:34 77° 77° (ENE) 21:16:49 437.432
CUTE 1.7 + AOD 2 26 Apr 21:13:29 21:17:42 53° 260° (W) 21:21:56 437.475
HO-68 26 Apr 21:16:28 21:23:32 58° 259° (W) 21:30:37 435.675
DX 1 26 Apr 21:26:11 21:29:13 19° 67° (ENE) 21:32:23 434.975-435.025
PHONESAT 2.4 26 Apr 21:28:00 21:31:34 64° 198° (SSW) 21:35:07 2401.200-2431.200
CUBEBUG 2 26 Apr 21:32:45 21:37:00 55° 74° (ENE) 21:41:27 437.445
CINEMA 3 26 Apr 21:41:33 21:45:50 61° 260° (W) 21:50:21 145.822/145.860
RS-15 26 Apr 21:55:11 22:05:27 37° 38° (NE) 22:16:19 29.354- 29.394
UWE-3 26 Apr 21:56:15 22:00:37 82° 77° (ENE) 22:05:08 435.000/436.395/437.385
O/OREOS (USA 219) 26 Apr 21:57:34 22:01:57 47° 107° (ESE) 22:06:21 437.305
FUNcube-1 26 Apr 22:02:37 22:06:56 75° 76° (ENE) 22:11:24 145.935
COMPASS 1 26 Apr 22:03:24 22:06:45 22° 267° (W) 22:10:01 437.405
ESTCUBE 1 26 Apr 22:04:32 22:06:30 13° 65° (ENE) 22:08:40 437.505/2401.250
UKube-1 26 Apr 22:06:17 22:10:26 49° 73° (ENE) 22:14:38 .
DELFI C3 26 Apr 22:11:27 22:15:28 57° 260° (W) 22:19:30 145.870
HUMSAT D 26 Apr 22:14:01 22:18:05 47° 73° (ENE) 22:22:14 437.325/437.525
SO-50 26 Apr 22:14:26 22:16:03 11° 252° (WSW) 22:17:22 436.795
TIGRISAT 26 Apr 22:25:21 22:28:01 15° 90° (E) 22:30:52 435.000
Oscar 11 26 Apr 22:25:43 22:29:37 31° 264° (W) 22:33:29 145.826/435.025
VERMONT LUNAR 26 Apr 22:27:21 22:28:35 11° 214° (SW) 22:29:44 437.305
Cosmos 2491 26 Apr 22:28:07 22:36:26 53° 91° (E) 22:44:53 435.465 / 435.565
ZACube-1 26 Apr 22:28:38 22:32:53 54° 260° (W) 22:37:17 437.345
UNISAT 6 26 Apr 22:29:53 22:32:58 18° 91° (E) 22:36:12 437.425
VELOX 1 26 Apr 22:36:53 22:41:07 51° 73° (ENE) 22:45:25 145.980
CUBEBUG 1 26 Apr 22:39:25 22:42:55 25° 70° (ENE) 22:46:31 437.445
YUBILEINY 26 Apr 22:39:41 22:48:25 74° 266° (W) 22:57:02 435.215
DUCHIFAT 1 26 Apr 22:47:06 22:48:00 11° 88° (E) 22:49:11 145.980
POLYITAN 1 26 Apr 22:47:12 22:48:36 12° 89° (E) 22:50:15 437.675
50 SAT 26 Apr 22:52:23 22:56:23 83° 78° (ENE) 23:00:26 437.505
AISAT 26 Apr 22:55:06 22:59:30 85° 74° (ENE) 23:03:56 437.250
DX 1 26 Apr 23:01:15 23:05:15 36° 262° (W) 23:09:15 434.975-435.025
QB50P1 26 Apr 23:03:43 23:06:37 18° 92° (E) 23:09:38 145.935-145.965
PHONESAT 2.4 26 Apr 23:06:56 23:09:26 18° 212° (SSW) 23:11:52 2401.200-2431.200
ANTELSAT 26 Apr 23:10:55 23:15:29 49° 99° (E) 23:19:59 437.575/2403.000
CUBEBUG 2 26 Apr 23:12:03 23:14:11 13° 272° (W) 23:16:06 437.445
TISAT 1 26 Apr 23:20:51 23:23:08 15° 66° (ENE) 23:25:36 437.305
QB50P2 26 Apr 23:29:28 23:33:26 36° 97° (E) 23:37:25 145.880/145.840
ESTCUBE 1 26 Apr 23:38:26 23:42:54 62° 259° (WSW) 23:47:24 437.505/2401.250
O/OREOS (USA 219) 26 Apr 23:38:30 23:41:42 18° 305° (NW) 23:44:44 437.305
UKube-1 26 Apr 23:44:38 23:46:56 14° 270° (W) 23:49:01 .
NANOSAT C BR1 26 Apr 23:46:31 23:50:44 55° 100° (E) 23:54:56 145.865
POPSAT HIP 1 26 Apr 23:50:17 23:54:33 61° 101° (E) 23:58:48 437.405
HUMSAT D 26 Apr 23:51:54 23:54:11 14° 271° (W) 23:56:17 437.325/437.525
SPROUT 26 Apr 23:54:22 23:58:24 44° 73° (ENE) 00:02:30 437.525
TIGRISAT 27 Apr 00:00:33 00:05:08 51° 287° (WNW) 00:09:37 435.000
UNISAT 6 27 Apr 00:05:32 00:10:02 44° 288° (WNW) 00:14:25 437.425
RS-15 27 Apr 00:07:30 00:19:04 75° 242° (WSW) 00:31:04 29.354- 29.394
BUGSAT 1 27 Apr 00:08:01 00:12:10 67° 101° (ESE) 00:16:21 437.445
CUBEBUG 1 27 Apr 00:15:32 00:19:14 27° 265° (W) 00:22:53 437.445
VELOX 1 27 Apr 00:15:43 00:18:03 14° 270° (W) 00:20:10 145.980
DUCHIFAT 1 27 Apr 00:20:04 00:24:19 61° 285° (WNW) 00:28:31 145.980
POLYITAN 1 27 Apr 00:20:41 00:24:57 58° 286° (WNW) 00:29:11 437.675
Cosmos 2504 27 Apr 00:25:41 00:33:30 55° 77° (ENE) 00:40:47 435.465 / 435.565
Cosmos 2491 27 Apr 00:26:00 00:33:44 33° 291° (WNW) 00:41:19 435.465 / 435.565
BEESAT 27 Apr 00:32:11 00:35:04 17° 65° (ENE) 00:38:08 436.000
SWISSCUBE 27 Apr 00:34:32 00:37:47 19° 66° (ENE) 00:41:10 437.505
QB50P1 27 Apr 00:38:40 00:42:38 37° 288° (WNW) 00:46:35 145.935-145.965
YUBILEINY 27 Apr 00:40:26 00:43:52 12° 283° (WNW) 00:46:35 435.215
AIST 1 27 Apr 00:44:33 00:48:51 77° 97° (E) 00:53:08
ANTELSAT 27 Apr 00:48:44 00:51:54 18° 294° (WNW) 00:54:52 437.575/2403.000
TISAT 1 27 Apr 00:54:34 00:58:35 45° 261° (W) 01:02:38 437.305
Oscar 19 27 Apr 00:59:16 01:00:14 11° 87° (E) 01:01:34 437.125/150
QB50P2 27 Apr 01:05:59 01:09:07 19° 292° (WNW) 01:12:08 145.880/145.840
NANOSAT C BR1 27 Apr 01:24:02 01:26:10 13° 295° (WNW) 01:28:08 145.865
POPSAT HIP 1 27 Apr 01:28:09 01:29:58 12° 295° (WNW) 01:31:35 437.405
SPROUT 27 Apr 01:32:14 01:34:47 15° 269° (W) 01:37:10 437.525
ITUPSAT 1 27 Apr 01:37:46 01:42:33 73° 75° (ENE) 01:47:22 437.325
KKS-1 27 Apr 01:42:31 01:44:54 15° 65° (ENE) 01:47:29 437.445
BUGSAT 1 27 Apr 01:46:13 01:47:10 11° 295° (WNW) 01:47:54 437.445
BEESAT 3 27 Apr 01:53:06 01:56:30 27° 114° (ESE) 02:00:01 437.485
BEESAT 2 27 Apr 01:56:27 01:59:44 24° 113° (ESE) 02:03:08 435.950
BEESAT 27 Apr 02:07:51 02:12:32 54° 260° (W) 02:17:14 436.000
SWISSCUBE 27 Apr 02:10:44 02:15:20 46° 261° (W) 02:19:56 437.505
Gurwin Techsat 1B 27 Apr 02:13:06 02:16:07 16° 89° (E) 02:19:23 435.225
Cosmos 2504 27 Apr 02:19:59 02:26:25 27° 276° (W) 02:32:17 435.465 / 435.565
RS-15 27 Apr 02:23:10 02:30:01 16° 260° (W) 02:35:59 29.354- 29.394
STARS 27 Apr 02:32:04 02:35:52 31° 70° (ENE) 02:39:47 437.465
Oscar 19 27 Apr 02:35:07 02:40:21 83° 285° (WNW) 02:45:33 437.125/150
CUSAT 1 27 Apr 02:55:25 03:01:30 26° 67° (ENE) 03:08:14 437.405
GONETS M04 27 Apr 03:02:29 03:10:37 40° 72° (ENE) 03:18:49
AIST 2 27 Apr 03:05:01 03:09:00 42° 116° (ESE) 03:13:05 435.215
AO-7 27 Apr 03:10:55 03:12:45 11° 84° (E) 03:15:25 29.400- 29.500
ITAMSAT 1 27 Apr 03:12:57 03:18:07 68° 101° (E) 03:23:18 435.822/435.867
KKS-1 27 Apr 03:16:50 03:21:10 52° 260° (W) 03:25:31 437.445
ITUPSAT 1 27 Apr 03:19:40 03:21:04 11° 272° (W) 03:22:09 437.325
BEESAT 3 27 Apr 03:30:53 03:34:28 28° 311° (NW) 03:38:02 437.485
BEESAT 2 27 Apr 03:34:02 03:37:44 31° 309° (NW) 03:41:26 435.950
DANDE 27 Apr 03:43:31 03:50:41 43° 74° (ENE) 03:58:47 436.750
JAS-2 27 Apr 03:45:12 03:49:04 18° 87° (E) 03:52:57 435.910
Gurwin Techsat 1B 27 Apr 03:51:21 03:56:36 61° 287° (WNW) 04:01:50 435.225
HORYU 2 27 Apr 03:54:16 03:58:09 28° 96° (E) 04:02:03 437.375
MOZHAYETS 4 27 Apr 03:54:54 03:58:38 25° 69° (ENE) 04:02:30
STARS 27 Apr 04:08:51 04:12:23 23° 266° (W) 04:15:50 437.465
Oscar 19 27 Apr 04:17:45 04:18:59 11° 300° (WNW) 04:19:54 437.125/150
CUSAT 1 27 Apr 04:37:05 04:44:51 73° 264° (W) 04:53:10 437.405
Cosmos 2499 27 Apr 04:43:08 04:49:24 27° 67° (ENE) 04:55:31 435.465 / 435.565
AIST 2 27 Apr 04:44:28 04:47:47 21° 314° (NW) 04:51:04 435.215
ITAMSAT 1 27 Apr 04:54:06 04:57:08 15° 297° (WNW) 04:59:57 435.822/435.867
AO-7 27 Apr 04:58:58 05:07:17 70° 104° (ESE) 05:15:36 29.400- 29.500
GONETS M04 27 Apr 04:59:19 05:07:35 44° 271° (W) 05:15:39
AUBIESAT-1 27 Apr 05:00:40 05:03:41 17° 61° (ENE) 05:06:51 437.475
DANDE 27 Apr 05:26:46 05:33:59 43° 268° (W) 05:41:50 436.750
JAS-2 27 Apr 05:28:45 05:34:57 60° 288° (WNW) 05:40:25 435.910
PRISM 27 Apr 05:30:49 05:31:59 11° 64° (ENE) 05:33:24 437.425
HORYU 2 27 Apr 05:30:57 05:34:43 26° 291° (WNW) 05:38:22 437.375
MOZHAYETS 4 27 Apr 05:31:38 05:35:46 31° 264° (W) 05:39:52
CUBESAT XI-V 27 Apr 05:35:55 05:39:30 23° 69° (ENE) 05:43:10 437.345
M-CUBED/EXP-1 PRIME 27 Apr 05:52:24 05:57:08 61° 69° (ENE) 06:01:55 437.505
CUTE-I 27 Apr 06:14:56 06:18:50 21° 92° (E) 06:22:53 437.470
STRAND 1 27 Apr 06:19:35 06:24:07 34° 69° (ENE) 06:28:43 437.568
CUSAT 1 27 Apr 06:22:46 06:26:48 14° 277° (W) 06:30:19 437.405
Cubesat XI-IV 27 Apr 06:24:42 06:29:06 26° 94° (E) 06:33:35 437.490
AUBIESAT-1 27 Apr 06:33:20 06:38:03 58° 255° (WSW) 06:42:47 437.475
Cosmos 2499 27 Apr 06:35:37 06:43:05 54° 269° (W) 06:50:01 435.465 / 435.565
AO-7 27 Apr 06:52:44 06:59:30 28° 302° (WNW) 07:06:03 29.400- 29.500
PRISM 27 Apr 07:02:52 07:07:00 63° 259° (W) 07:11:07 437.425
CUBESAT XI-V 27 Apr 07:12:34 07:16:48 34° 264° (W) 07:20:58 437.345
M-CUBED/EXP-1 PRIME 27 Apr 07:29:31 07:32:22 15° 266° (W) 07:35:01 437.505
PCSat 27 Apr 07:42:39 07:47:43 44° 113° (ESE) 07:52:53 145.827
CUTE-I 27 Apr 07:54:06 07:59:12 46° 289° (WNW) 08:04:15 437.470
STRAND 1 27 Apr 07:59:02 08:03:23 27° 265° (W) 08:07:39 437.568
Cubesat XI-IV 27 Apr 08:04:25 08:09:19 37° 290° (WNW) 08:14:09 437.490
O/OREOS (USA 219) 27 Apr 08:08:15 08:12:46 79° 68° (ENE) 08:17:13 437.305
GOMX 1 27 Apr 08:37:17 08:41:40 28° 94° (E) 08:46:19 467.674
Cosmos 2491 27 Apr 08:39:57 08:46:47 25° 65° (ENE) 08:53:54 435.465 / 435.565
SEEDS 27 Apr 08:41:03 08:43:02 13° 89° (E) 08:45:14 437.485
HO-68 27 Apr 08:45:30 08:51:32 29° 94° (E) 08:57:41 435.675
CANX-2 27 Apr 08:51:14 08:54:42 24° 94° (E) 08:58:11 2200.000
AAUSAT CUBESAT 2 27 Apr 08:54:10 08:55:58 13° 89° (E) 08:57:58 437.432
BRITE-PL 27 Apr 08:57:56 09:03:05 65° 100° (E) 09:08:36 437.365/2234.400
CUTE 1.7 + AOD 2 27 Apr 08:59:58 09:03:36 27° 95° (E) 09:07:15 437.475
DOVE 4 27 Apr 09:05:23 09:10:04 34° 96° (E) 09:14:55 437.250
TIGRISAT 27 Apr 09:24:18 09:26:20 13° 64° (ENE) 09:28:36 435.000
CUBEBUG 2 27 Apr 09:26:16 09:28:36 14° 89° (E) 09:31:11 437.445
PCSat 27 Apr 09:26:44 09:31:21 27° 310° (NW) 09:35:55 145.827
UNISAT 6 27 Apr 09:28:51 09:31:23 15° 65° (ENE) 09:34:09 437.425
CINEMA 3 27 Apr 09:37:03 09:41:38 36° 96° (E) 09:46:16 145.822/145.860
YUBILEINY 27 Apr 09:44:36 09:51:27 27° 84° (E) 09:58:35 435.215
COMPASS 1 27 Apr 09:46:40 09:50:51 63° 100° (E) 09:54:59 437.405
UWE-3 27 Apr 09:47:57 09:51:13 19° 91° (E) 09:54:37 435.000/436.395/437.385
DELFI C3 27 Apr 09:52:32 09:55:28 20° 93° (E) 09:58:29 145.870
FUNcube-1 27 Apr 09:53:07 09:55:56 16° 90° (E) 09:58:56 145.935
QB50P1 27 Apr 09:57:02 09:58:53 13° 65° (ENE) 10:00:57 145.935-145.965
ANTELSAT 27 Apr 10:09:03 10:13:15 39° 71° (ENE) 10:17:36 437.575/2403.000
BEESAT 3 27 Apr 10:12:57 10:15:28 16° 43° (NE) 10:18:04 437.485
Oscar 11 27 Apr 10:13:22 10:17:35 48° 99° (E) 10:21:47 145.826/435.025
GOMX 1 27 Apr 10:15:04 10:19:50 37° 289° (WNW) 10:24:44 467.674
SEEDS 27 Apr 10:15:05 10:19:12 48° 286° (WNW) 10:23:14 437.485
BEESAT 2 27 Apr 10:16:48 10:19:07 15° 42° (NE) 10:21:34 435.950
ZACube-1 27 Apr 10:18:18 10:22:24 31° 95° (E) 10:26:29 437.345
QB50P2 27 Apr 10:22:03 10:25:28 25° 69° (ENE) 10:28:59 145.880/145.840
CANX-2 27 Apr 10:26:57 10:30:36 27° 290° (WNW) 10:34:11 2200.000
AAUSAT CUBESAT 2 27 Apr 10:27:54 10:31:57 48° 286° (WNW) 10:35:57 437.432
VELOX 1 27 Apr 10:31:21 10:31:44 10° 88° (E) 10:32:26 145.980
HO-68 27 Apr 10:32:38 10:39:34 51° 292° (WNW) 10:46:24 435.675
50 SAT 27 Apr 10:32:54 10:33:49 11° 89° (E) 10:34:58 437.505
ISS 27 Apr 10:35:16 10:37:43 20° 133° (SE) 10:40:13 145.825
Cosmos 2491 27 Apr 10:35:46 10:44:33 70° 267° (W) 10:53:17 435.465 / 435.565
CUTE 1.7 + AOD 2 27 Apr 10:35:56 10:39:27 24° 290° (WNW) 10:42:50 437.475
BRITE-PL 27 Apr 10:37:56 10:41:14 17° 294° (WNW) 10:44:25 437.365/2234.400
NANOSAT C BR1 27 Apr 10:38:25 10:42:15 36° 72° (ENE) 10:46:10 145.865
POPSAT HIP 1 27 Apr 10:42:22 10:46:17 40° 72° (ENE) 10:50:17 437.405
DOVE 4 27 Apr 10:43:17 10:47:43 29° 290° (WNW) 10:52:11 437.250
SO-50 27 Apr 10:45:07 10:49:11 32° 114° (ESE) 10:53:28 436.795
AISAT 27 Apr 10:47:45 10:50:39 17° 92° (E) 10:53:44 437.250
DX 1 27 Apr 10:50:06 10:54:10 38° 98° (E) 10:58:16 434.975-435.025
AIST 1 27 Apr 10:53:33 10:56:21 17° 71° (ENE) 10:59:15
BUGSAT 1 27 Apr 10:57:29 11:01:14 40° 73° (ENE) 11:05:02 437.445
TIGRISAT 27 Apr 10:58:04 11:02:33 64° 259° (W) 11:07:11 435.000
CUBEBUG 2 27 Apr 11:01:01 11:05:44 59° 286° (WNW) 11:10:24 437.445
UNISAT 6 27 Apr 11:03:17 11:07:44 55° 261° (W) 11:12:18 437.425
DUCHIFAT 1 27 Apr 11:11:23 11:15:35 87° 78° (ENE) 11:19:50 145.980
POLYITAN 1 27 Apr 11:12:39 11:16:52 86° 257° (WSW) 11:21:08 437.675
CINEMA 3 27 Apr 11:14:31 11:18:40 26° 291° (WNW) 11:22:45 145.822/145.860
UWE-3 27 Apr 11:23:31 11:27:57 42° 288° (WNW) 11:32:20 435.000/436.395/437.385
COMPASS 1 27 Apr 11:24:41 11:26:03 11° 295° (WNW) 11:27:13 437.405
DELFI C3 27 Apr 11:27:07 11:30:40 29° 289° (WNW) 11:34:08 145.870
AIST 2 27 Apr 11:27:48 11:31:14 24° 47° (NE) 11:34:41 435.215
FUNcube-1 27 Apr 11:28:09 11:32:34 46° 287° (WNW) 11:36:55 145.935
QB50P1 27 Apr 11:30:14 11:34:21 54° 260° (W) 11:38:30 145.935-145.965
UKube-1 27 Apr 11:30:25 11:34:46 78° 284° (WNW) 11:39:05 .
ESTCUBE 1 27 Apr 11:32:20 11:36:11 28° 95° (E) 11:40:06 437.505/2401.250
HUMSAT D 27 Apr 11:34:25 11:38:47 79° 284° (WNW) 11:43:04 437.325/437.525
YUBILEINY 27 Apr 11:38:59 11:47:43 63° 282° (WNW) 11:56:27 435.215
ANTELSAT 27 Apr 11:46:51 11:50:13 20° 268° (W) 11:53:32 437.575/2403.000
BEESAT 3 27 Apr 11:49:50 11:53:51 56° 242° (WSW) 11:57:48 437.485
Oscar 11 27 Apr 11:50:50 11:53:25 15° 294° (WNW) 11:55:48 145.826/435.025
BEESAT 2 27 Apr 11:53:36 11:57:41 63° 242° (WSW) 12:01:41 435.950
ZACube-1 27 Apr 11:54:51 11:58:38 25° 291° (WNW) 12:02:18 437.345
QB50P2 27 Apr 11:57:43 12:01:19 26° 265° (W) 12:04:52 145.880/145.840
CUBEBUG 1 27 Apr 12:04:20 12:08:39 57° 100° (E) 12:12:57 437.445
VELOX 1 27 Apr 12:04:25 12:08:51 69° 285° (WNW) 12:13:16 145.980
50 SAT 27 Apr 12:05:04 12:09:03 54° 285° (WNW) 12:12:56 437.505
ISS 27 Apr 12:10:47 12:13:54 41° 328° (NNW) 12:17:01 145.825
Oscar 19 27 Apr 12:14:23 12:17:23 16° 63° (ENE) 12:20:37 437.125/150
NANOSAT C BR1 27 Apr 12:15:22 12:18:17 18° 268° (W) 12:21:04 145.865
POPSAT HIP 1 27 Apr 12:19:44 12:22:24 16° 269° (W) 12:24:55 437.405
AISAT 27 Apr 12:23:16 12:27:28 41° 288° (WNW) 12:31:40 437.250
RS-15 27 Apr 12:23:38 12:29:20 17° 101° (E) 12:35:53 29.354- 29.394
SO-50 27 Apr 12:25:34 12:29:44 30° 312° (NW) 12:34:00 436.795
DX 1 27 Apr 12:27:04 12:30:11 19° 293° (WNW) 12:33:11 434.975-435.025
AIST 1 27 Apr 12:30:15 12:34:10 35° 268° (W) 12:38:04
BUGSAT 1 27 Apr 12:34:40 12:36:58 14° 269° (W) 12:39:06 437.445
Cosmos 2491 27 Apr 12:37:06 12:40:00 11° 284° (WNW) 12:42:07 435.465 / 435.565
TISAT 1 27 Apr 12:40:05 12:43:45 28° 96° (E) 12:47:28 437.305
ITAMSAT 1 27 Apr 12:54:43 12:56:27 12° 61° (ENE) 12:58:28 435.822/435.867
Cosmos 2504 27 Apr 13:01:10 13:09:33 50° 90° (E) 13:17:54 435.465 / 435.565
AIST 2 27 Apr 13:06:03 13:09:55 34° 245° (WSW) 13:13:40 435.215
ESTCUBE 1 27 Apr 13:09:15 13:12:59 26° 291° (WNW) 13:16:39 437.505/2401.250
SPROUT 27 Apr 13:17:30 13:21:51 81° 284° (WNW) 13:26:10 437.525
Gurwin Techsat 1B 27 Apr 13:33:05 13:37:13 24° 66° (ENE) 13:41:29 435.225
ITUPSAT 1 27 Apr 13:40:11 13:43:36 20° 92° (E) 13:47:08 437.325
CUBEBUG 1 27 Apr 13:42:24 13:44:36 13° 295° (WNW) 13:46:37 437.445
YUBILEINY 27 Apr 13:44:01 13:46:54 11° 306° (NW) 13:49:03 435.215
ISS 27 Apr 13:49:21 13:50:56 13° 347° (NNW) 13:52:29 145.825
Oscar 19 27 Apr 13:51:10 13:56:16 63° 259° (WSW) 14:01:26 437.125/150
JAS-2 27 Apr 13:58:33 14:00:45 12° 55° (NE) 14:03:25 435.910
AO-7 27 Apr 14:08:06 14:13:17 19° 53° (NE) 14:18:49 29.400- 29.500
BEESAT 27 Apr 14:08:58 14:13:27 40° 98° (E) 14:17:56 436.000
SWISSCUBE 27 Apr 14:11:45 14:16:21 47° 99° (E) 14:20:55 437.505
TISAT 1 27 Apr 14:15:59 14:19:26 24° 291° (WNW) 14:22:48 437.305
RS-15 27 Apr 14:29:18 14:40:08 81° 119° (ESE) 14:51:16 29.354- 29.394
ITAMSAT 1 27 Apr 14:30:07 14:35:18 87° 255° (WSW) 14:40:31 435.822/435.867
HORYU 2 27 Apr 14:52:02 14:55:38 25° 69° (ENE) 14:59:22 437.375
Cosmos 2504 27 Apr 14:55:06 15:03:13 37° 289° (WNW) 15:11:04 435.465 / 435.565
VERMONT LUNAR 27 Apr 15:05:22 15:07:36 17° 149° (SSE) 15:09:54 437.305
KKS-1 27 Apr 15:08:55 15:12:54 31° 96° (E) 15:16:55 437.445
Gurwin Techsat 1B 27 Apr 15:11:58 15:16:59 42° 262° (W) 15:22:01 435.225
ITUPSAT 1 27 Apr 15:17:13 15:21:42 40° 289° (WNW) 15:26:07 437.325
ISS 27 Apr 15:27:24 15:28:24 11° 7° (N) 15:29:26 145.825
JAS-2 27 Apr 15:36:56 15:44:34 59° 72° (ENE) 15:51:59 435.910
BEESAT 27 Apr 15:47:28 15:51:03 21° 293° (WNW) 15:54:30 436.000
SWISSCUBE 27 Apr 15:50:36 15:53:53 18° 294° (WNW) 15:57:00 437.505
PHONESAT 2.4 27 Apr 15:54:18 15:56:23 15° 147° (SSE) 15:58:34 2401.200-2431.200
AO-7 27 Apr 15:56:46 16:05:02 84° 72° (ENE) 16:13:23 29.400- 29.500
STARS 27 Apr 15:58:15 16:02:42 69° 102° (ESE) 16:07:08 437.465
GONETS M04 27 Apr 16:02:18 16:10:26 47° 89° (E) 16:18:47
CUSAT 1 27 Apr 16:06:22 16:07:34 11° 80° (E) 16:09:08 437.405
HORYU 2 27 Apr 16:28:14 16:32:12 30° 264° (W) 16:36:08 437.375
PCSat 27 Apr 16:31:20 16:36:08 31° 51° (NE) 16:40:57 145.827
VERMONT LUNAR 27 Apr 16:41:21 16:44:42 64° 164° (SSE) 16:48:04 437.305
RS-15 27 Apr 16:44:13 16:53:54 33° 325° (NW) 17:03:40 29.354- 29.394
KKS-1 27 Apr 16:45:47 16:49:25 24° 292° (WNW) 16:52:58 437.445
DANDE 27 Apr 16:57:12 17:00:13 29° 89° (E) 17:04:06 436.750
ISS 27 Apr 17:02:47 17:05:37 27° 27° (NNE) 17:08:28 145.825
Cosmos 2499 27 Apr 17:18:17 17:24:53 25° 84° (E) 17:31:40 435.465 / 435.565
JAS-2 27 Apr 17:23:10 17:29:55 30° 268° (W) 17:36:19 435.910
MOZHAYETS 4 27 Apr 17:26:58 17:31:33 66° 101° (E) 17:36:05
PHONESAT 2.4 27 Apr 17:30:41 17:34:12 57° 161° (SSE) 17:37:44 2401.200-2431.200
CUTE-I 27 Apr 17:35:51 17:40:30 33° 69° (ENE) 17:45:14 437.470
STARS 27 Apr 17:36:57 17:38:39 12° 296° (WNW) 17:40:08 437.465
CUSAT 1 27 Apr 17:45:44 17:49:22 46° 287° (WNW) 17:54:11 437.405
Cubesat XI-IV 27 Apr 17:45:49 17:50:45 41° 70° (ENE) 17:55:44 437.490
AO-7 27 Apr 17:53:15 17:58:56 19° 271° (W) 18:04:10 29.400- 29.500
GONETS M04 27 Apr 17:59:27 18:07:30 38° 289° (WNW) 18:15:29
PCSat 27 Apr 18:14:38 18:19:37 37° 249° (WSW) 18:24:31 145.827
VERMONT LUNAR 27 Apr 18:18:48 18:22:11 75° 360° (N) 18:25:34 437.305
STRAND 1 27 Apr 18:33:02 18:34:33 11° 88° (E) 18:36:25 437.568
ISS 27 Apr 18:39:00 18:42:02 36° 224° (SW) 18:45:03 145.825
